SWA2555 KBWI-KBOS

Flight info

Callsign SWA2555
Flight time 0h 51m
Altitude 33000
Route DUKPN1 BROSS Q419 JFK ROBUC3
Aircraft B38M/M-SDE1FGHILORVWXY/HB1

Departure

Time 2026-05-08 01:55
Airport Baltimore/Washington International Thurgood Marshall Airport (KBWI)

Arrival

Time 2026-05-08 02:47
Airport Boston Logan International Airport (KBOS)
Time Latitude Longitude Altitude Speed Heading
2026-05-08 01:23 39.17919 -76.67215 159 ft 0 kts 58°
2026-05-08 01:42 39.17913 -76.67228 159 ft 2 kts 54°
2026-05-08 01:43 39.17903 -76.67245 157 ft 2 kts 50°
2026-05-08 01:43 39.17891 -76.67261 155 ft 2 kts 43°
2026-05-08 01:43 39.17878 -76.67274 154 ft 2 kts 28°
2026-05-08 01:43 39.17863 -76.67280 154 ft 2 kts
2026-05-08 01:44 39.17846 -76.67277 154 ft 2 kts 335°
2026-05-08 01:44 39.17836 -76.67270 154 ft 1 kts 326°
2026-05-08 01:48 39.17844 -76.67277 154 ft 6 kts 326°
2026-05-08 01:48 39.17907 -76.67335 152 ft 10 kts 324°
2026-05-08 01:48 39.17956 -76.67380 152 ft 7 kts 324°
2026-05-08 01:49 39.17968 -76.67392 152 ft 0 kts 325°
2026-05-08 01:49 39.17969 -76.67392 152 ft 0 kts 326°
2026-05-08 01:50 39.17983 -76.67406 152 ft 7 kts 317°
2026-05-08 01:50 39.18006 -76.67520 148 ft 19 kts 297°
2026-05-08 01:51 39.18118 -76.67638 148 ft 23 kts 324°
2026-05-08 01:51 39.18272 -76.67781 149 ft 30 kts 324°
2026-05-08 01:51 39.18447 -76.67942 151 ft 31 kts 323°
2026-05-08 01:51 39.18524 -76.68015 151 ft 8 kts 324°
2026-05-08 01:52 39.18566 -76.68073 151 ft 10 kts 295°
2026-05-08 01:52 39.18569 -76.68105 150 ft 0 kts 259°
2026-05-08 01:53 39.18567 -76.68111 150 ft 3 kts 249°
2026-05-08 01:54 39.18532 -76.68171 150 ft 10 kts 210°
2026-05-08 01:54 39.18453 -76.68125 149 ft 20 kts 144°
2026-05-08 01:54 39.18260 -76.67947 147 ft 57 kts 145°
2026-05-08 01:54 39.17741 -76.67460 147 ft 123 kts 144°
2026-05-08 01:55 39.16902 -76.66690 237 ft 163 kts 147°
2026-05-08 01:55 39.16014 -76.65805 917 ft 165 kts 140°
2026-05-08 01:55 39.15283 -76.64612 1505 ft 177 kts 126°
2026-05-08 01:55 39.14642 -76.63173 2021 ft 194 kts 120°
2026-05-08 01:56 39.14021 -76.61612 2703 ft 200 kts 118°
2026-05-08 01:56 39.13397 -76.59940 3301 ft 213 kts 113°
2026-05-08 01:56 39.12841 -76.58107 3746 ft 227 kts 110°
2026-05-08 01:56 39.12295 -76.56203 4440 ft 235 kts 110°
2026-05-08 01:57 39.11649 -76.54082 4586 ft 275 kts 111°
2026-05-08 01:57 39.10913 -76.51771 5209 ft 276 kts 112°
2026-05-08 01:57 39.10161 -76.49458 6178 ft 284 kts 111°
2026-05-08 01:57 39.09456 -76.47042 7002 ft 292 kts 100°
2026-05-08 01:58 39.09455 -76.44437 7899 ft 294 kts 74°
2026-05-08 01:58 39.10072 -76.41902 8678 ft 303 kts 68°
2026-05-08 01:58 39.10752 -76.39297 9574 ft 310 kts 68°
2026-05-08 01:58 39.11457 -76.36633 10306 ft 321 kts 68°
2026-05-08 01:59 39.12204 -76.33838 10757 ft 341 kts 68°
2026-05-08 01:59 39.13003 -76.30864 11139 ft 361 kts 69°
2026-05-08 01:59 39.13846 -76.27725 11565 ft 379 kts 69°
2026-05-08 01:59 39.14726 -76.24450 12103 ft 392 kts 69°
2026-05-08 02:00 39.15385 -76.20995 12692 ft 403 kts 82°
2026-05-08 02:00 39.15783 -76.17392 13397 ft 410 kts 82°
2026-05-08 02:00 39.16197 -76.13724 14029 ft 417 kts 83°
2026-05-08 02:00 39.16620 -76.10004 14653 ft 422 kts 83°
2026-05-08 02:01 39.17051 -76.06240 15290 ft 427 kts 83°
2026-05-08 02:01 39.17486 -76.02444 15921 ft 431 kts 83°
2026-05-08 02:01 39.17925 -75.98594 16514 ft 436 kts 83°
2026-05-08 02:01 39.18369 -75.94692 17126 ft 441 kts 83°
2026-05-08 02:02 39.19082 -75.90836 17715 ft 446 kts 68°
2026-05-08 02:02 39.20553 -75.87326 18274 ft 446 kts 50°
2026-05-08 02:02 39.22669 -75.84426 18772 ft 444 kts 37°
2026-05-08 02:02 39.24993 -75.81763 19252 ft 448 kts 36°
2026-05-08 02:03 39.27357 -75.79115 19778 ft 452 kts 35°
2026-05-08 02:03 39.29752 -75.76465 20271 ft 456 kts 35°
2026-05-08 02:03 39.32153 -75.73826 20757 ft 460 kts 34°
2026-05-08 02:03 39.34599 -75.71143 21269 ft 463 kts 34°
2026-05-08 02:04 39.37064 -75.68439 21750 ft 467 kts 34°
2026-05-08 02:04 39.39558 -75.65702 22237 ft 471 kts 34°
2026-05-08 02:04 39.42067 -75.62946 22725 ft 475 kts 34°
2026-05-08 02:04 39.44593 -75.60167 23186 ft 479 kts 34°
2026-05-08 02:05 39.47138 -75.57365 23614 ft 483 kts 34°
2026-05-08 02:05 39.49707 -75.54533 24014 ft 486 kts 34°
2026-05-08 02:05 39.52283 -75.51692 24412 ft 489 kts 34°
2026-05-08 02:05 39.54884 -75.48819 24793 ft 492 kts 33°
2026-05-08 02:06 39.57496 -75.45932 25164 ft 495 kts 33°
2026-05-08 02:06 39.60128 -75.43021 25540 ft 498 kts 33°
2026-05-08 02:06 39.62767 -75.40097 25909 ft 501 kts 33°
2026-05-08 02:06 39.65436 -75.37137 26273 ft 504 kts 33°
2026-05-08 02:07 39.68112 -75.34166 26637 ft 507 kts 33°
2026-05-08 02:07 39.70768 -75.31216 26973 ft 510 kts 33°
2026-05-08 02:07 39.73476 -75.28203 27322 ft 513 kts 33°
2026-05-08 02:07 39.76188 -75.25182 27669 ft 516 kts 33°
2026-05-08 02:08 39.78903 -75.22078 28001 ft 524 kts 38°
2026-05-08 02:08 39.81364 -75.18543 28361 ft 530 kts 43°
2026-05-08 02:08 39.83805 -75.14947 28670 ft 533 kts 43°
2026-05-08 02:08 39.86260 -75.11307 28995 ft 536 kts 43°
2026-05-08 02:09 39.88716 -75.07656 29308 ft 538 kts 43°
2026-05-08 02:09 39.91192 -75.03970 29616 ft 541 kts 43°
2026-05-08 02:09 39.93674 -75.00271 29936 ft 544 kts 43°
2026-05-08 02:09 39.96168 -74.96532 30191 ft 548 kts 45°
2026-05-08 02:10 39.98404 -74.92464 30474 ft 554 kts 51°
2026-05-08 02:10 40.00555 -74.88294 30723 ft 557 kts 51°
2026-05-08 02:10 40.02714 -74.84075 30983 ft 559 kts 51°
2026-05-08 02:10 40.04870 -74.79841 31257 ft 560 kts 51°
2026-05-08 02:11 40.07001 -74.75653 31573 ft 561 kts 51°
2026-05-08 02:11 40.09156 -74.71412 31913 ft 560 kts 51°
2026-05-08 02:11 40.11308 -74.67170 32261 ft 560 kts 51°
2026-05-08 02:11 40.13456 -74.62931 32603 ft 560 kts 51°
2026-05-08 02:12 40.15607 -74.58679 32874 ft 561 kts 51°
2026-05-08 02:12 40.17756 -74.54427 32899 ft 561 kts 51°
2026-05-08 02:12 40.20033 -74.50329 32868 ft 550 kts 41°
2026-05-08 02:12 40.22790 -74.46980 32893 ft 539 kts 32°
2026-05-08 02:13 40.28554 -74.40660 32892 ft 539 kts 31°
2026-05-08 02:13 40.34345 -74.34437 32898 ft 539 kts 31°
2026-05-08 02:14 40.40146 -74.28215 32892 ft 539 kts 31°
2026-05-08 02:14 40.45946 -74.21980 32888 ft 539 kts 32°
2026-05-08 02:15 40.51725 -74.15677 32883 ft 544 kts 37°
2026-05-08 02:15 40.54261 -74.11941 32883 ft 554 kts 50°
2026-05-08 02:15 40.56116 -74.07540 32878 ft 561 kts 67°
2026-05-08 02:16 40.58512 -73.97658 32891 ft 565 kts 72°
2026-05-08 02:16 40.60807 -73.87854 32899 ft 565 kts 72°
2026-05-08 02:17 40.63342 -73.78076 32881 ft 562 kts 59°
2026-05-08 02:17 40.65506 -73.73889 32900 ft 550 kts 43°
2026-05-08 02:17 40.68094 -73.70177 32890 ft 552 kts 42°
2026-05-08 02:18 40.72351 -73.63903 32897 ft 552 kts 42°
2026-05-08 02:18 40.78344 -73.55111 32899 ft 552 kts 42°
2026-05-08 02:19 40.82649 -73.48781 32900 ft 552 kts 43°
2026-05-08 02:19 40.87736 -73.41286 32901 ft 552 kts 43°
2026-05-08 02:20 40.92855 -73.33725 32841 ft 552 kts 43°
2026-05-08 02:20 40.95406 -73.29949 32639 ft 548 kts 43°
2026-05-08 02:20 40.97947 -73.26183 32234 ft 546 kts 43°
2026-05-08 02:21 41.00468 -73.22443 31795 ft 546 kts 43°
2026-05-08 02:21 41.03004 -73.18677 31351 ft 547 kts 43°
2026-05-08 02:21 41.05533 -73.14916 30915 ft 548 kts 43°
2026-05-08 02:21 41.08072 -73.11134 30480 ft 549 kts 43°
2026-05-08 02:22 41.10606 -73.07355 30050 ft 551 kts 44°
2026-05-08 02:22 41.13166 -73.03533 29544 ft 555 kts 44°
2026-05-08 02:22 41.15724 -72.99709 28921 ft 556 kts 44°
2026-05-08 02:22 41.18295 -72.95860 28267 ft 555 kts 44°
2026-05-08 02:23 41.20710 -72.91878 27630 ft 554 kts 54°
2026-05-08 02:23 41.22617 -72.87416 27034 ft 556 kts 60°
2026-05-08 02:23 41.24421 -72.82887 26413 ft 556 kts 61°
2026-05-08 02:23 41.26179 -72.78378 25828 ft 556 kts 62°
2026-05-08 02:24 41.27936 -72.73806 25249 ft 555 kts 62°
2026-05-08 02:24 41.29676 -72.69244 24691 ft 551 kts 63°
2026-05-08 02:24 41.31398 -72.64722 24151 ft 546 kts 63°
2026-05-08 02:24 41.33104 -72.60235 23620 ft 541 kts 63°
2026-05-08 02:25 41.34790 -72.55794 23018 ft 536 kts 63°
2026-05-08 02:25 41.36463 -72.51380 22387 ft 530 kts 63°
2026-05-08 02:25 41.38115 -72.47019 21775 ft 525 kts 63°
2026-05-08 02:25 41.39751 -72.42689 21172 ft 520 kts 64°
2026-05-08 02:26 41.41368 -72.38409 20579 ft 515 kts 64°
2026-05-08 02:26 41.42967 -72.34163 20081 ft 510 kts 64°
2026-05-08 02:26 41.44552 -72.29953 19887 ft 508 kts 64°
2026-05-08 02:26 41.46133 -72.25744 19868 ft 508 kts 64°
2026-05-08 02:27 41.47712 -72.21520 19866 ft 508 kts 64°
2026-05-08 02:27 41.49263 -72.17288 19871 ft 508 kts 65°
2026-05-08 02:27 41.50819 -72.13048 19866 ft 508 kts 64°
2026-05-08 02:27 41.52373 -72.08809 19871 ft 508 kts 65°
2026-05-08 02:28 41.53910 -72.04612 19342 ft 502 kts 65°
2026-05-08 02:28 41.55373 -72.00459 18791 ft 499 kts 69°
2026-05-08 02:28 41.56681 -71.96179 18263 ft 496 kts 69°
2026-05-08 02:28 41.57992 -71.91940 17643 ft 491 kts 69°
2026-05-08 02:29 41.59280 -71.87763 17091 ft 483 kts 70°
2026-05-08 02:29 41.60502 -71.83605 16918 ft 480 kts 70°
2026-05-08 02:29 41.61723 -71.79463 16974 ft 479 kts 70°
2026-05-08 02:29 41.62948 -71.75312 17035 ft 480 kts 70°
2026-05-08 02:30 41.64173 -71.71160 17046 ft 481 kts 70°
2026-05-08 02:30 41.65398 -71.67001 17041 ft 481 kts 70°
2026-05-08 02:30 41.66623 -71.62835 17042 ft 480 kts 70°
2026-05-08 02:30 41.67843 -71.58680 17051 ft 481 kts 70°
2026-05-08 02:31 41.69067 -71.54497 17054 ft 481 kts 70°
2026-05-08 02:31 41.70285 -71.50333 17056 ft 481 kts 70°
2026-05-08 02:31 41.71500 -71.46171 17056 ft 481 kts 70°
2026-05-08 02:31 41.72838 -71.42061 17045 ft 481 kts 61°
2026-05-08 02:32 41.74508 -71.38178 17058 ft 482 kts 60°
2026-05-08 02:32 41.76174 -71.34291 17059 ft 482 kts 60°
2026-05-08 02:32 41.77841 -71.30388 17056 ft 482 kts 60°
2026-05-08 02:32 41.79503 -71.26492 17049 ft 482 kts 60°
2026-05-08 02:33 41.81165 -71.22593 16632 ft 478 kts 60°
2026-05-08 02:33 41.82789 -71.18777 16201 ft 469 kts 60°
2026-05-08 02:33 41.84392 -71.15004 15777 ft 461 kts 60°
2026-05-08 02:33 41.85958 -71.11349 15366 ft 454 kts 59°
2026-05-08 02:34 41.87538 -71.07701 14953 ft 448 kts 59°
2026-05-08 02:34 41.89038 -71.04227 14563 ft 441 kts 59°
2026-05-08 02:34 41.90568 -71.00680 14154 ft 435 kts 59°
2026-05-08 02:34 41.92053 -70.97233 13778 ft 429 kts 58°
2026-05-08 02:35 41.93554 -70.93742 13347 ft 424 kts 58°
2026-05-08 02:35 41.95022 -70.90327 12911 ft 418 kts 58°
2026-05-08 02:35 41.96468 -70.86959 12472 ft 415 kts 58°
2026-05-08 02:35 41.97893 -70.83634 12118 ft 408 kts 58°
2026-05-08 02:36 41.99284 -70.80387 12075 ft 392 kts 58°
2026-05-08 02:36 42.00633 -70.77278 12069 ft 376 kts 54°
2026-05-08 02:36 42.02234 -70.74604 12063 ft 361 kts 46°
2026-05-08 02:36 42.03887 -70.72082 12052 ft 355 kts 46°
2026-05-08 02:37 42.05497 -70.69645 12052 ft 341 kts 45°
2026-05-08 02:37 42.07062 -70.67291 11854 ft 335 kts 45°
2026-05-08 02:37 42.08610 -70.64965 11523 ft 333 kts 45°
2026-05-08 02:37 42.10205 -70.62743 11180 ft 325 kts 34°
2026-05-08 02:38 42.12151 -70.61401 10798 ft 306 kts 10°
2026-05-08 02:38 42.14117 -70.60907 10471 ft 294 kts
2026-05-08 02:38 42.16104 -70.60473 10128 ft 285 kts
2026-05-08 02:38 42.18064 -70.60053 9782 ft 277 kts
2026-05-08 02:39 42.19920 -70.59661 9398 ft 271 kts
2026-05-08 02:39 42.21790 -70.59271 8956 ft 266 kts
2026-05-08 02:39 42.23583 -70.58892 8532 ft 262 kts
2026-05-08 02:39 42.25394 -70.58508 8115 ft 258 kts
2026-05-08 02:40 42.27129 -70.58138 7688 ft 254 kts
2026-05-08 02:40 42.28866 -70.57767 7284 ft 251 kts
2026-05-08 02:40 42.30574 -70.57567 6864 ft 243 kts 348°
2026-05-08 02:40 42.32041 -70.58528 6462 ft 236 kts 314°
2026-05-08 02:41 42.33091 -70.60236 6090 ft 238 kts 306°
2026-05-08 02:41 42.34085 -70.62044 5689 ft 241 kts 306°
2026-05-08 02:41 42.35085 -70.63883 5290 ft 244 kts 306°
2026-05-08 02:41 42.36097 -70.65752 4896 ft 247 kts 306°
2026-05-08 02:42 42.37113 -70.67643 4498 ft 250 kts 306°
2026-05-08 02:42 42.38142 -70.69563 4091 ft 253 kts 306°
2026-05-08 02:42 42.39176 -70.71501 3705 ft 255 kts 306°
2026-05-08 02:42 42.40074 -70.73570 3309 ft 257 kts 289°
2026-05-08 02:43 42.40254 -70.75961 3049 ft 257 kts 263°
2026-05-08 02:43 42.39744 -70.78222 3015 ft 246 kts 253°
2026-05-08 02:43 42.39246 -70.80404 2775 ft 241 kts 258°
2026-05-08 02:43 42.38857 -70.82579 2535 ft 232 kts 259°
2026-05-08 02:44 42.38494 -70.84675 2187 ft 226 kts 260°
2026-05-08 02:44 42.38153 -70.86612 1870 ft 206 kts 260°
2026-05-08 02:44 42.37842 -70.88390 1603 ft 182 kts 261°
2026-05-08 02:44 42.37569 -70.89954 1363 ft 161 kts 261°
2026-05-08 02:45 42.37329 -70.91331 1169 ft 143 kts 261°
2026-05-08 02:45 42.37102 -70.92641 967 ft 143 kts 259°
2026-05-08 02:45 42.36873 -70.93941 781 ft 144 kts 259°
2026-05-08 02:45 42.36637 -70.95271 581 ft 143 kts 259°
2026-05-08 02:46 42.36396 -70.96584 401 ft 145 kts 258°
2026-05-08 02:46 42.36166 -70.97904 189 ft 147 kts 258°
2026-05-08 02:46 42.35934 -70.99263 43 ft 147 kts 258°
2026-05-08 02:46 42.35763 -71.00247 36 ft 50 kts 258°
2026-05-08 02:47 42.35772 -71.00561 36 ft 34 kts 278°
2026-05-08 02:47 42.35806 -71.00876 36 ft 34 kts 279°
2026-05-08 02:47 42.35839 -71.01186 36 ft 33 kts 278°
2026-05-08 02:47 42.35873 -71.01485 36 ft 19 kts 281°
2026-05-08 02:48 42.35903 -71.01612 36 ft 10 kts 325°
2026-05-08 02:48 42.35962 -71.01613 28 ft 9 kts 17°
2026-05-08 02:48 42.36026 -71.01583 28 ft 11 kts 19°
2026-05-08 02:48 42.36103 -71.01546 28 ft 13 kts 20°
2026-05-08 02:49 42.36135 -71.01530 28 ft 0 kts 20°
2026-05-08 02:49 42.36145 -71.01525 28 ft 4 kts 20°
2026-05-08 02:49 42.36209 -71.01518 28 ft 11 kts 327°
2026-05-08 02:49 42.36233 -71.01583 28 ft 1 kts 290°
2026-05-08 02:50 42.36237 -71.01586 28 ft 0 kts 333°
2026-05-08 02:50 42.36239 -71.01586 28 ft 0 kts 348°
2026-05-08 02:50 42.36252 -71.01577 28 ft 5 kts 38°
2026-05-08 02:50 42.36274 -71.01486 28 ft 17 kts 69°
2026-05-08 02:51 42.36373 -71.01445 28 ft 16 kts 330°
2026-05-08 02:51 42.36429 -71.01551 28 ft 12 kts 297°
2026-05-08 02:51 42.36415 -71.01607 28 ft 5 kts 214°
2026-05-08 02:51 42.36398 -71.01622 28 ft 1 kts 214°
2026-05-08 02:52 42.36397 -71.01624 28 ft 0 kts 214°